Regional Weather Roundup
Issued by NWS Wakefield, VA

Home | Current Version | Previous Version | Text Only | Print | Product List | Glossary Off
Versions: 1 2 3 4 5 6 7 8 9 10 11 12 13 14 15 16 17 18 19 20 21 22 23 24 25 26 27 28 29 30 31 32 33 34 35 36 37 38 39 40 41 42 43 44 45 46 47 48 49 50

000
ASUS41 KAKQ 290510
RWRAKQ

REGIONAL WEATHER ROUNDUP
NATIONAL WEATHER SERVICE WAKEFIELD VA
100 AM EDT TUE JUL 29 2014

Note: "fair" indicates few or no clouds below 12,000 feet with no
significant weather and/or obstructions to visibility. * = Denotes
station may not report precipitation (e.g., rain,snow,etc.),
thunder or fog.

VAZ042-051-052>054-056-290600-
NORTHERN VIRGINIA

CITY           SKY/WX    TMP DP  RH WIND       PRES   REMARKS
WASH NATIONAL  CLEAR     71  57  61 NW10G20   29.84R
DULLES         CLEAR     66  56  70 NW12      29.85R
FORT BELVOIR   CLEAR     69  59  71 NW9       29.84S
QUANTICO       CLEAR     69  57  65 NW10      29.85R
FREDERICKSBRG* CLEAR     69  58  68 NW6       29.84S
STAFFORD*      CLEAR     64  58  83 NW6       29.89S
WARRENTON      CLEAR     65  62  87 NW5       29.86R
CULPEPER*      CLEAR    N/A N/A N/A N3        29.87S
MANASSAS*      NOT AVBL
LEESBURG*      CLEAR     66  61  82 NW12      29.87R
WINCHESTER     CLEAR     63  54  72 NW8       29.88S
$$

VAZ048-049-060>072-079>083-290600-
CENTRAL AND SOUTH CENTRAL VIRGINIA...AND NORTH CENTRAL NORTH CAROLINA

CITY           SKY/WX    TMP DP  RH WIND       PRES   REMARKS
RICHMOND       CLEAR     72  56  57 NW12      29.84R
CHESTERFIELD*  CLEAR     68  50  52 NW5       29.87R
HANOVER        CLEAR     69  57  65 NW3       29.87R
TAPPAHANNOCK*  CLEAR     70  55  58 NW3       29.85R
CHARLOTTSVILLE CLEAR     64  55  72 NW3       29.89R
ORANGE*        CLEAR     64  54  68 CALM      29.89R
LOUISA*        CLEAR     64  57  77 CALM      29.87R
FARMVILLE*     CLEAR     66  55  68 CALM      29.86S
SOUTH HILL*    CLEAR     70  57  64 CALM      29.92R
ROANOKE RAPIDS NOT AVBL
RALEIGH        PTCLDY    70  57  63 CALM      29.88S
$$

VAZ088>098-290600-
SOUTHEAST VIRGINIA

CITY           SKY/WX    TMP DP  RH WIND       PRES   REMARKS
NORFOLK        CLEAR     76  57  51 NW7G16    29.82R
VIRGINIA BEACH CLEAR     74  59  59 NW12      29.81R
NORFOLK NAVAL  CLEAR     76  58  53 NW15      29.84R
WEST POINT*    CLEAR     73  57  57 NW3       29.85R
NEWPORT NEWS   CLEAR     73  58  59 NW3       29.83R
LANGLEY AFB    CLEAR     72  59  62 N14       29.82R
FORT EUSTIS    CLEAR     74  58  57 VRB7      29.81R
WILLIAMSBURG*  CLEAR     72  61  68 N8        29.84R
FRANKLIN*      CLEAR     70  57  64 NW5       29.84R
WAKEFIELD      CLEAR     70  58  65 CALM      29.84R
$$

VAZ020-022-025-037-045-290600-
WESTERN AND SOUTHWEST VIRGINIA

CITY           SKY/WX    TMP DP  RH WIND       PRES   REMARKS
STAUNTON*      CLEAR     58  53  81 CALM      29.93F
HOT SPRINGS VA MOCLDY    52  50  95 NW8       30.02S
LYNCHBURG      MOCLDY    62  57  83 NW3       29.92S
DANVILLE       CLEAR     68  56  65 SW3       29.91R
MARTINSVILLE   CLEAR     63  56  79 NW7       29.95S
ROANOKE        CLEAR     65  54  67 W3        29.95S
BLACKSBURG     RAIN      63  61  94 W8        30.00F
DUBLIN*        MOCLDY    62  57  83 W3        30.00S
MARION*        CLOUDY   N/A N/A N/A SW3       30.04S
HILLSVILLE*    CLEAR     60  53  78 NW8       30.00S
RICHLANDS*     MOCLDY    62  58  86 NW5       30.03S
WISE*          PTCLDY    59  57  94 NW3       30.05S
ABINGDON*      PTCLDY    64  58  83 CALM      30.02S
$$

MDZ021>025-VAZ099-100-290600-
SOUTHERN MARYLAND AND THE DELMARVA PENINSULA

CITY           SKY/WX    TMP DP  RH WIND       PRES   REMARKS
PATUXENT RIVER CLEAR     70  59  68 W14       29.81R
BAY BRIDGE APT   N/A     70  59  68 NW13      29.81R
LEONARDTOWN    CLEAR     68  57  68 W3        29.84R
DOVER          PTCLDY    69  63  80 NW15      29.77R
GEORGETOWN     CLEAR     70  60  70 VRB6      29.80R
EASTON         PTCLDY    72  63  73 N7        29.84R
CAMBRIDGE      CLEAR     72  59  64 NW13      29.80R
SALISBURY      NOT AVBL
OCEAN CITY     CLEAR     70  60  70 NW3       29.79R
WALLOPS ISLAND CLEAR     73  61  65 N12       29.81R
ACCOMACK*        N/A     73  59  60 NW13G23   29.81R
$$

NCZ012>017-030>032-290600-
EASTERN NORTH CAROLINA

CITY           SKY/WX    TMP DP  RH WIND       PRES   REMARKS
ELIZABETH CITY CLEAR     70  61  73 W7        29.82S
AHOSKIE*       CLEAR     68  60  76 CALM      29.85R
EDENTON*       CLEAR     72  62  72 CALM      29.83R
CURRITUCK*     CLEAR     71  58  62 W3        29.83R
KILL DEVIL HLS CLEAR     77  61  57 NW3       29.81S
MANTEO         NOT AVBL
CAPE HATTERAS  CLOUDY    82  64  54 NW8       29.82S
GOLDSBORO      CLEAR     75  65  72 N5        29.83S
WASHINGTON     CLEAR     72  62  70 CALM      29.84R
GREENVILLE     CLEAR     72  63  73 CALM      29.87R
NEW BERN       CLEAR     72  70  94 CALM      29.84S FOG
WILMINGTON     CLEAR     73  71  93 NW6       29.81F
$$

VAZ048-290600-
ELSEWHERE

CITY           SKY/WX    TMP DP  RH WIND       PRES   REMARKS
HARRISBURG PA  PTCLDY    65  56  72 NW7       29.83R
BALTIMORE      PTCLDY    66  60  81 W6        29.82R
ANNAPOLIS      PTCLDY    70  61  73 W9        29.81R
ANDREWS AFB    CLEAR     69  59  70 NW14      29.83R
WILMINGTON DE  PTCLDY    66  61  84 NW14      29.79S
PHILADELPHIA   PTCLDY    69  57  65 NW16G23   29.78R
WILDWOOD NJ*   PTCLDY    70  59  68 NW9       29.79R
ATLANTIC CITY  CLEAR     67  59  75 NW10      29.76R
HENDERSON NC   CLEAR     69  55  60 NW6       29.88F
GREENSBORO     PTCLDY    67  56  67 NW6       29.92R
ROCKY MOUNT    CLEAR     71  60  68 NW6       29.85F
FAYETTEVILLE   MOCLDY    78  58  49 N9        29.86S
CHARLOTTE      CLOUDY    71  56  58 N6        29.92S
$$

VAZ100-290600-
MARINE

STATION/POSITION TIME  TEMP    WIND        PRES    WAVE   SWELL
                       AIR SEA DIR/SP/G            HT/PER HT/PER
                 (UTC) (F)     (DEG/KT/KT) (MB)    (FT/S) (FT/S)
44066 TX TWR #4  0500   73 74  300/ 17/ 21 1005.6R   5/ 8   3/ 8
CAPE MAY NJ      0500   72 78  320/  8/ 17 1007.6R
LEWES DE         0500   72 73  330/ 17/ 21 1008.2R
15NM E FENWICK I 0500   73 74              1008.2R   3/ 7
OCEAN-CITY-INLET 0500   72 68  310/  6/  7 1008.1R
WACHAPREAGUE VA  0500   74 81  300/  2/  7 1009.2R
THOMAS POINT MD  0500   70 78  320/ 13/ 16 1009.9R
GOOSES REEF MD   0500   72     330/ 16/ 21 1009.8R
COVE POINT MD    0500   71     330/ 14/ 18 1009.1F
SOLOMONS ISLAND  0500      80                N/A
BISHOPS HEAD MD  0500   72 74  330/ 15/ 20 1008.8R
PINEY POINT MD   0500          340/ 22/ 23   N/A
POTOMAC MD       0500   74     330/ 19/ 23 1008.5S
CAMBRIDGE MD     0500   73 79  320/ 13/ 18 1008.7R
LEWISETTA VA     0500   73 79  330/ 11/ 14 1009.6R
RAPPAHANNOCK LGT 0500          310/ 22/ 26 1009.9R
STINGRAY PT      0500   75     330/ 17/ 21 1010.2R
YORK RVR RNG VA  0500   75     340/ 18/ 23 1009.0R
YORKTOWN VA      0500   74 80  340/ 14/ 16 1009.5R
JAMESTOWN VA     0500   72     360/  8/ 14   N/A
DOMINION TERM VA 0500   77     350/ 11/ 18 1010.0R
KIPTOPEKE VA     0500      81  360/ 21/ 25   N/A
CHES BAY BRIDGE  0500   77 77  320/ 22/ 26 1009.1R
CAPE HENRY VA    0500   77     320/ 19/ 22 1008.4R
WILLOUBY STN VA  0500          340/ 12/ 13 1009.2R
S CRANEY ISL VA  0500          320/ 10/ 15 1009.7R
CAPE HENRY BUOY  0400      77                N/A     3/ 4
1ST LANDING BUOY 0500   78     330/ 19/ 23 1009.2S
CAPE CHARLES BUO 0500      75                N/A     3/ 4
OFFSHORE WE BUOY 0400      78                N/A     3/ 7
64NM E OF VA BCH 0500   80 78  300/ 12/ 14 1008.7R   4/ 6   2/ 6
DUCK PIER NC     0500   76 62  310/ 10/ 13 1008.9R
44056 DUCK FRF   0400                        N/A     1/ 9
OREGON INLET NC  0500   77 83  330/  4/  6 1009.8R
HATTERAS NC      0500   82 82  330/ 11/ 13 1010.1R
DIAMOND SHLS NC  0500          VRB  4/  6  1009.8F   4/ 7   3/ 7
CAPE LOOKOUT NC  0400   79     270/  5/  5 1009.9R
$$


USA.gov is the U.S. government's official web portal to all federal, state and local government web resources and services.